Weather History for Kokomo, IN

Change the Weather History Date:

Monday, October 7, 2013

  Actual Average (KGUS) Record (KGUS)
Temperature  
Mean Temperature 53 °F -  
Max Temperature 62 °F 65 °F 87 °F (2007)
Min Temperature 44 °F 45 °F 30 °F (2001)
Degree Days  
Heating Degree Days 12    
Growing Degree Days 3 (Base 50)    
Moisture  
Dew Point 41 °F    
Average Humidity 75    
Maximum Humidity 87    
Minimum Humidity 45    
Precipitation  
Precipitation 0.00 in - - ()
Sea Level Pressure  
Sea Level Pressure 29.95 in    
Wind  
Wind Speed 11 mph (West)    
Max Wind Speed 20 mph    
Max Gust Speed 25 mph    
Visibility 10 miles    
Events      
Averages and records for this station are not official NWS values.
T = Trace of Precipitation, MM = Missing Value Source: NWS Daily Summary

Daily Weather History Graph

Daily Weather History Graph

Search for Another Location

Airport:

Trip Planner

Search our weather history database for the weather conditions in past years. The results will help you decide how hot, cold, wet, or windy it might be!

Date:

Astronomy

Oct. 07, 2013 Rise Set
Actual Time 6:47 AM CDT 6:16 PM CDT
Civil Twilight 6:19 AM CDT 6:43 PM CDT
Nautical Twilight 5:48 AM CDT 7:15 PM CDT
Astronomical Twilight 5:16 AM CDT 7:46 PM CDT
Moon 9:37 AM CDT (10/7) 7:59 PM CDT (10/7)
Length of Visible Light 12h 23m
Length of Day
11h 29m
Waxing Crescent, 9% of the Moon is Illuminated
Oct 7
Waxing Crescent
Oct 11
First Quarter
Oct 18
Full
Oct 26
Last Quarter
Nov 3
New

Hourly Weather History & Observations

Time (CDT) Temp. Windchill Dew Point Humidity Pressure Visibility Wind Dir Wind Speed Gust Speed Precip Events Conditions
12:15 AM 46.4 °F 42.4 °F 37.4 °F 71% 29.80 in 10.0 mi WSW 8.1 mph - N/A   Clear
12:35 AM 46.4 °F 40.4 °F 37.4 °F 71% 29.80 in 10.0 mi WSW 13.8 mph - N/A   Clear
12:55 AM 46.4 °F 41.1 °F 37.4 °F 71% 29.80 in 10.0 mi WSW 11.5 mph - N/A   Clear
1:15 AM 46.4 °F 41.1 °F 39.2 °F 76% 29.80 in 10.0 mi WSW 11.5 mph - N/A   Clear
1:35 AM 46.4 °F 40.7 °F 39.2 °F 76% 29.80 in 10.0 mi WSW 12.7 mph - N/A   Scattered Clouds
1:55 AM 46.4 °F 40.7 °F 39.2 °F 76% 29.80 in 10.0 mi West 12.7 mph - N/A   Mostly Cloudy
2:15 AM 48.2 °F - 39.2 °F 71% 29.80 in 10.0 mi WSW 10.4 mph - N/A   Overcast
2:35 AM 48.2 °F - 39.2 °F 71% 29.80 in 10.0 mi WSW 12.7 mph - N/A   Mostly Cloudy
2:55 AM 48.2 °F - 41.0 °F 76% 29.79 in 10.0 mi WSW 11.5 mph - N/A   Overcast
3:15 AM 48.2 °F - 41.0 °F 76% 29.80 in 10.0 mi WSW 10.4 mph - N/A   Overcast
3:35 AM 48.2 °F - 42.8 °F 82% 29.80 in 6.0 mi WSW 12.7 mph - N/A   Overcast
3:55 AM 46.4 °F 41.5 °F 42.8 °F 87% 29.81 in 4.0 mi WSW 10.4 mph - N/A   Overcast
4:15 AM 46.4 °F 41.9 °F 42.8 °F 87% 29.81 in 4.0 mi West 9.2 mph - N/A   Overcast
4:35 AM 46.4 °F 42.9 °F 42.8 °F 87% 29.81 in 9.0 mi West 6.9 mph - N/A   Overcast
4:55 AM 46.4 °F 42.4 °F 41.0 °F 81% 29.82 in 10.0 mi West 8.1 mph - N/A   Overcast
5:15 AM 46.4 °F 42.4 °F 39.2 °F 76% 29.82 in 10.0 mi West 8.1 mph - N/A   Overcast
5:35 AM 46.4 °F 41.1 °F 41.0 °F 81% 29.83 in 10.0 mi West 11.5 mph - N/A   Overcast
5:55 AM 46.4 °F 41.1 °F 41.0 °F 81% 29.84 in 10.0 mi West 11.5 mph 17.3 mph N/A   Mostly Cloudy
6:15 AM 46.4 °F 41.9 °F 41.0 °F 81% 29.84 in 10.0 mi West 9.2 mph - N/A   Overcast
6:35 AM 46.4 °F 41.9 °F 41.0 °F 81% 29.85 in 10.0 mi West 9.2 mph - N/A   Mostly Cloudy
6:55 AM 46.4 °F 41.1 °F 41.0 °F 81% 29.86 in 10.0 mi West 11.5 mph - N/A   Mostly Cloudy
7:15 AM 44.6 °F 40.2 °F 41.0 °F 87% 29.86 in 10.0 mi West 8.1 mph - N/A   Scattered Clouds
7:35 AM 46.4 °F 41.5 °F 41.0 °F 81% 29.87 in 10.0 mi West 10.4 mph - N/A   Partly Cloudy
7:55 AM 46.4 °F 41.1 °F 41.0 °F 81% 29.88 in 10.0 mi West 11.5 mph - N/A   Partly Cloudy
8:15 AM 46.4 °F 41.1 °F 41.0 °F 81% 29.89 in 10.0 mi West 11.5 mph - N/A   Mostly Cloudy
8:35 AM 46.4 °F 41.1 °F 41.0 °F 81% 29.90 in 10.0 mi West 11.5 mph - N/A   Overcast
8:55 AM 48.2 °F - 41.0 °F 76% 29.91 in 10.0 mi West 13.8 mph 23.0 mph N/A   Mostly Cloudy
9:15 AM 48.2 °F - 41.0 °F 76% 29.92 in 10.0 mi West 16.1 mph 20.7 mph N/A   Scattered Clouds
9:35 AM 50.0 °F - 41.0 °F 71% 29.93 in 10.0 mi West 16.1 mph 19.6 mph N/A   Mostly Cloudy
9:55 AM - - - N/A% 29.93 in 10.0 mi West 16.1 mph 20.7 mph N/A   Mostly Cloudy
10:15 AM - - - N/A% 29.93 in 10.0 mi West 13.8 mph 18.4 mph N/A   Mostly Cloudy
10:35 AM - - - N/A% 29.93 in 10.0 mi West 16.1 mph 20.7 mph N/A   Partly Cloudy
10:55 AM - - - N/A% 29.94 in 10.0 mi West 15.0 mph - N/A   Partly Cloudy
11:15 AM - - - N/A% 29.95 in 10.0 mi West 17.3 mph 23.0 mph N/A   Scattered Clouds
11:35 AM - - - N/A% 29.95 in 10.0 mi West 18.4 mph - N/A   Scattered Clouds
11:55 AM - - - N/A% 29.96 in 10.0 mi West 18.4 mph 25.3 mph N/A   Mostly Cloudy
12:15 PM - - - N/A% 29.96 in 10.0 mi West 17.3 mph 23.0 mph N/A   Overcast
12:35 PM - - - N/A% 29.97 in 10.0 mi West 19.6 mph 24.2 mph N/A   Overcast
12:55 PM - - - N/A% 29.97 in 10.0 mi West 17.3 mph 20.7 mph N/A   Overcast
1:15 PM - - - N/A% 29.97 in 10.0 mi West 17.3 mph 23.0 mph N/A   Overcast
1:35 PM - - - N/A% 29.97 in 10.0 mi West 15.0 mph - N/A   Overcast
1:55 PM - - - N/A% 29.98 in 10.0 mi West 15.0 mph 20.7 mph N/A   Overcast
2:15 PM - - - N/A% 29.98 in 10.0 mi West 16.1 mph - N/A   Overcast
2:35 PM - - - N/A% 29.98 in 10.0 mi West 11.5 mph 19.6 mph N/A   Overcast
2:55 PM - - - N/A% 29.98 in 10.0 mi WNW 11.5 mph 16.1 mph N/A   Overcast
3:15 PM - - - N/A% 29.98 in 10.0 mi West 10.4 mph 16.1 mph N/A   Mostly Cloudy
3:35 PM - - - N/A% 29.98 in 10.0 mi WNW 8.1 mph - N/A   Partly Cloudy
3:55 PM 62.6 °F - 44.6 °F 52% 29.99 in 10.0 mi NW 12.7 mph - N/A   Clear
4:15 PM 62.6 °F - 44.6 °F 52% 29.99 in 10.0 mi NW 9.2 mph 17.3 mph N/A   Clear
4:35 PM 62.6 °F - 42.8 °F 48% 30.00 in 10.0 mi WNW 11.5 mph - N/A   Partly Cloudy
4:55 PM 62.6 °F - 42.8 °F 48% 30.00 in 10.0 mi NW 10.4 mph - N/A   Clear
5:15 PM 62.6 °F - 41.0 °F 45% 30.00 in 10.0 mi WNW 9.2 mph - N/A   Clear
5:35 PM 62.6 °F - 42.8 °F 48% 30.01 in 10.0 mi NW 5.8 mph - N/A   Clear
5:55 PM - - - N/A% 30.01 in 10.0 mi NW 5.8 mph - N/A   Clear
6:15 PM - - - N/A% 30.02 in 10.0 mi WNW 3.5 mph - N/A   Clear
6:35 PM - - - N/A% 30.03 in 10.0 mi Calm Calm - N/A   Clear
6:55 PM - - - N/A% 30.04 in 10.0 mi Calm Calm - N/A   Clear
7:15 PM - - - N/A% 30.05 in 10.0 mi NNE 3.5 mph - N/A   Clear
7:35 PM - - - N/A% 30.06 in 10.0 mi Calm Calm - N/A   Clear
7:55 PM - - - N/A% 30.07 in 10.0 mi SE 3.5 mph - N/A   Clear
8:15 PM 46.4 °F 45.2 °F 41.0 °F 81% 30.08 in 10.0 mi SSE 3.5 mph - N/A   Clear
8:35 PM 46.4 °F - 42.8 °F 87% 30.08 in 10.0 mi Calm Calm - N/A   Clear
8:55 PM 46.4 °F 44.3 °F 41.0 °F 81% 30.09 in 10.0 mi SE 4.6 mph - N/A   Clear
9:15 PM 46.4 °F 44.3 °F 42.8 °F 87% 30.10 in 10.0 mi ESE 4.6 mph - N/A   Clear
9:35 PM 46.4 °F 43.5 °F 41.0 °F 81% 30.11 in 10.0 mi SE 5.8 mph - N/A   Clear
9:55 PM 46.4 °F 44.3 °F 42.8 °F 87% 30.11 in 10.0 mi SSE 4.6 mph - N/A   Clear
10:15 PM 46.4 °F 43.5 °F 41.0 °F 81% 30.11 in 10.0 mi SSE 5.8 mph - N/A   Clear
10:35 PM 46.4 °F 43.5 °F 41.0 °F 81% 30.12 in 10.0 mi South 5.8 mph - N/A   Clear
10:55 PM 46.4 °F 43.5 °F 41.0 °F 81% 30.13 in 10.0 mi SSE 5.8 mph - N/A   Clear
11:15 PM 46.4 °F 45.2 °F 41.0 °F 81% 30.13 in 10.0 mi South 3.5 mph - N/A   Clear
11:35 PM 46.4 °F 43.5 °F 39.2 °F 76% 30.14 in 10.0 mi SSE 5.8 mph - N/A   Clear
11:55 PM 46.4 °F 45.2 °F 39.2 °F 76% 30.14 in 10.0 mi SSE 3.5 mph - N/A   Clear